GFSGL_sfc_dewp_093.txt.gz
Dewpoint
55 56 56 54 53 52 52 50 52 52 52 52 53 53 53 54 55 56 55 56 56 56 56 56 57 56 56 56 56 56 55 55 52 52 52 51 51 50 51 51 51 49 48
55 55 56 56 55 53 52 52 51 52 52 51 51 52 53 53 53 55 55 55 56 56 56 55 56 56 55 56 56 55 55 55 53 51 50 51 49 48 50 49 49 48 47
54 55 55 56 56 54 53 53 52 52 51 51 50 51 51 53 54 54 55 55 56 56 56 55 56 55 55 55 55 55 55 54 54 53 53 45 44 44 43 44 45 44 44
55 55 55 55 56 55 54 53 55 54 52 51 50 50 50 50 52 54 54 54 55 55 56 55 56 55 55 54 54 53 53 53 52 51 45 41 41 42 41 41 40 42 42
54 54 54 54 54 55 56 55 54 54 54 53 52 51 50 49 49 53 54 54 55 55 54 52 45 44 42 45 51 52 51 49 44 43 38 37 36 37 37 38 37 36 38
55 54 54 55 55 56 56 57 56 55 55 53 53 52 51 50 45 44 49 54 54 53 47 41 39 39 37 37 37 37 41 43 39 37 35 34 35 35 35 34 34 33 33
53 55 55 55 55 55 56 55 56 57 57 56 55 54 53 52 45 44 44 53 50 47 43 39 37 37 36 35 35 34 34 34 33 36 34 33 32 33 33 32 32 32 32
53 53 55 56 56 55 55 55 55 55 56 57 56 56 52 43 40 40 40 41 39 39 37 36 35 34 35 34 33 32 32 32 32 33 32 32 33 33 32 27 26 26 25
53 53 53 55 56 56 56 55 56 56 55 53 47 44 41 38 37 37 39 38 35 34 34 34 33 33 34 34 30 29 27 28 31 31 30 27 24 22 20 22 23 23 23
53 53 55 55 54 55 55 54 47 47 40 39 36 37 36 35 36 36 36 34 31 30 30 31 32 31 31 31 29 27 25 24 25 26 25 24 24 24 26 25 24 22 21
45 54 55 55 55 52 47 44 41 38 35 34 32 33 34 34 34 34 34 32 30 28 28 28 30 30 29 27 28 28 28 28 27 26 24 23 22 22 21 21 21 20 19
43 43 44 46 44 43 41 39 38 36 33 32 30 30 31 32 33 33 32 31 30 27 27 27 28 26 28 28 28 28 27 26 26 25 23 20 19 19 19 21 22 22 22
38 38 38 40 41 41 38 35 34 33 32 30 28 28 28 30 30 31 31 30 28 26 28 28 29 29 29 28 28 27 25 25 24 21 19 17 18 18 18 19 19 17 17
31 32 33 33 32 33 34 35 33 32 30 29 27 26 27 27 28 29 29 29 29 29 29 29 28 27 27 27 26 25 23 22 20 19 18 17 17 16 16 15 14 13 13
28 28 29 29 28 28 28 28 28 30 30 28 28 28 27 27 29 30 30 28 28 28 27 27 27 26 24 23 22 21 19 17 17 17 17 15 14 14 13 13 12 11 10
28 27 26 26 26 27 26 26 29 29 30 29 29 28 29 30 30 31 31 31 30 29 25 23 21 21 20 19 18 17 16 16 15 14 14 13 12 11 11 11 11 10 8
27 27 26 26 25 24 24 23 22 27 30 30 29 30 30 29 29 29 29 28 27 23 20 19 18 17 16 15 15 14 13 13 13 12 11 10 10 9 9 9 9 7 6
27 26 26 25 24 23 22 22 22 21 20 22 26 27 28 28 27 26 25 22 19 18 17 15 14 14 13 13 12 11 11 10 9 10 8 6 3 8 7 7 7 -1 5
27 26 25 25 24 23 22 21 21 20 19 19 19 20 22 23 23 21 19 16 14 13 13 12 12 12 11 10 9 8 6 6 4 1 3 2 -8 3 0 4 4 2 2
27 27 26 24 22 21 21 19 18 18 19 19 18 17 17 14 13 12 13 12 11 11 11 11 10 10 9 8 5 2 3 1 0 -0 -10 -11 -12 -5 -5 -2 -2 2 4
24 24 23 21 20 19 18 17 16 15 15 15 15 15 14 12 11 10 10 10 9 8 8 8 7 6 6 5 4 0 -3 -13 -2 -1 -4 -3 -14 -5 1 0 0 3 3
22 22 22 21 21 19 18 16 14 13 12 12 12 12 12 10 9 8 7 6 5 6 6 3 3 4 3 -0 -3 -12 -10 -7 -7 -7 -8 -6 -4 -3 -3 -1 -2 -1 2
19 18 17 16 17 16 15 14 14 12 11 11 11 10 9 8 7 5 2 0 3 1 -2 -4 -7 -2 -5 -9 -7 -4 -6 -7 -7 -12 -13 -11 -5 -4 -10 -4 -1 -1 -1
17 16 14 14 13 12 12 11 11 10 8 6 4 5 5 5 2 -1 -3 -5 -5 -11 -14 -11 -2 -3 -5 -11 -11 -8 -4 -9 -6 -8 -13 -14 -10 -4 -3 -4 -4 -4 -2
15 14 13 12 11 10 9 8 6 4 4 3 3 3 5 1 1 -5 -8 -11 -11 -14 -9 -4 -8 -7 -9 -10 -7 -1 -2 -5 -11 -10 -13 -11 -10 -8 -6 -4 -3 -2 -1
12 11 11 10 9 8 4 2 -0 1 2 -1 -1 1 -3 -7 -5 -2 -10 -11 -11 -10 -9 -10 -8 -8 -8 -5 1 0 -8 -9 -9 -4 -7 -4 -5 -5 -5 -5 -6 -5 -4

GFSGL_sfc_dewp_096.txt.gz
Dewpoint
55 54 52 51 52 52 51 50 50 51 50 53 52 53 53 53 54 54 53 54 55 55 55 55 54 55 55 55 54 54 54 53 52 52 51 51 50 50 51 52 53 52 51
55 55 53 52 52 52 51 50 51 51 51 51 52 51 52 52 53 54 54 54 55 54 55 55 55 55 54 55 55 54 54 55 53 51 51 49 49 49 48 50 51 51 50
55 56 55 54 53 52 52 52 50 52 51 52 51 51 51 51 53 53 54 54 55 55 55 55 55 54 54 55 55 55 55 54 53 53 53 46 44 44 44 44 45 45 46
54 55 55 56 55 53 52 52 52 51 51 51 51 51 51 51 51 51 53 54 55 55 55 55 55 55 54 54 54 54 54 53 53 53 52 42 42 42 42 41 40 41 41
54 53 53 55 56 55 54 53 53 52 51 51 50 50 50 50 50 51 52 52 53 54 54 54 53 49 43 46 52 54 52 52 53 46 40 38 37 37 37 38 36 37 39
53 52 53 53 55 56 55 54 54 54 53 51 51 50 49 49 44 43 47 53 53 53 53 43 40 39 37 37 38 38 39 46 42 39 37 35 35 34 35 34 34 33 33
54 54 54 53 53 54 55 55 54 54 54 54 53 52 51 50 43 42 42 51 53 53 49 41 38 37 36 36 35 35 34 34 33 37 34 33 32 33 34 32 32 32 32
54 55 55 54 54 53 53 54 55 55 55 54 54 53 53 52 44 42 40 46 41 40 40 40 38 36 35 35 33 32 32 32 33 33 33 32 32 32 29 27 23 22 23
54 54 55 55 54 54 54 55 55 56 56 56 56 55 54 42 39 40 41 38 35 34 35 35 35 34 35 35 30 29 28 29 31 30 28 28 28 27 26 24 23 23 23
46 48 54 56 56 55 55 55 55 55 53 46 41 40 39 37 37 38 39 35 32 31 31 32 32 32 32 31 29 27 26 28 28 27 26 25 24 24 24 22 22 20 18
42 44 47 49 53 55 55 51 45 42 41 39 37 35 34 35 36 36 37 35 32 30 30 30 31 31 31 31 30 29 28 29 28 27 25 22 21 20 21 21 21 21 20
38 37 37 40 44 45 43 41 40 38 34 32 31 31 32 32 33 33 33 32 31 28 26 28 30 31 30 29 29 29 29 28 27 24 22 19 19 18 18 18 17 16 15
32 32 33 33 34 38 39 38 35 35 34 32 29 28 29 30 31 31 31 30 29 27 28 30 30 29 28 28 28 27 26 24 22 20 18 17 16 15 13 13 14 12 12
29 29 29 29 29 32 32 33 33 32 32 30 28 28 27 28 28 29 29 29 29 28 28 27 27 27 26 26 24 23 23 22 20 19 17 15 13 14 13 13 12 11 10
27 27 28 28 27 27 29 30 29 31 31 28 28 27 26 26 28 29 28 28 28 28 27 27 25 24 22 21 20 20 20 18 17 17 15 13 12 11 11 11 11 10 8
26 25 26 26 26 26 26 27 30 30 31 31 31 29 30 31 31 31 31 30 29 27 24 21 20 20 19 17 16 15 14 13 13 13 12 10 10 9 9 10 10 8 6
25 25 25 25 25 24 24 24 23 28 30 30 30 31 30 30 30 29 28 26 25 22 18 17 16 16 16 15 14 13 11 12 13 11 10 9 10 9 9 8 7 6 5
24 24 22 22 23 22 22 22 22 21 20 22 27 26 27 27 26 25 24 20 17 17 15 14 14 13 13 12 11 10 9 10 9 8 6 5 4 6 5 5 5 -3 3
24 23 23 22 22 21 21 20 20 19 18 17 17 17 21 22 22 21 19 15 13 12 12 12 12 11 10 9 8 6 1 -0 -0 -1 1 0 -9 0 -2 2 2 1 0
23 23 22 20 19 19 19 18 19 18 17 16 15 15 15 12 11 10 11 11 10 10 10 9 9 8 7 6 3 0 1 1 -2 -1 -14 -15 -18 -8 -5 -4 -6 -5 2
22 21 20 19 17 17 16 16 16 15 14 13 12 12 12 10 9 9 8 7 7 7 6 6 5 4 3 -1 2 -3 -4 -11 -6 -6 -5 -6 -19 -10 -4 -5 -6 -1 1
21 21 20 19 18 16 15 15 14 13 11 10 10 9 8 7 6 5 4 3 3 3 3 2 2 2 1 -0 -4 -11 -10 -14 -13 -12 -10 -10 -8 -9 -10 -9 -10 -10 -3
18 17 17 17 16 15 13 12 11 10 10 9 9 7 5 3 2 2 1 -2 -1 -4 -4 -5 -6 -2 -4 -9 -7 -5 -6 -7 -9 -15 -17 -17 -11 -12 -17 -13 -9 -9 -8
17 15 14 13 12 11 10 9 8 6 5 4 4 3 1 -2 -5 -5 -8 -11 -9 -10 -11 -8 -4 -3 -4 -12 -14 -11 -5 -12 -10 -11 -16 -17 -13 -8 -12 -10 -8 -10 -7
14 13 11 11 10 8 8 7 6 4 3 2 3 3 1 -1 -5 -12 -16 -14 -11 -11 -10 -11 -12 -10 -12 -12 -9 -5 -8 -7 -14 -13 -16 -14 -15 -16 -13 -10 -9 -6 -6
11 10 10 9 7 7 5 4 3 2 1 1 -1 -4 -5 -5 -8 -17 -16 -15 -15 -15 -14 -14 -12 -11 -11 -8 -4 -4 -10 -9 -13 -10 -15 -12 -15 -13 -12 -11 -9 -8 -6

GFSGL_sfc_dewp_099.txt.gz
Dewpoint
53 52 51 51 51 51 51 51 50 51 51 52 52 53 53 53 53 53 52 52 54 54 55 54 54 54 54 54 54 54 53 52 50 51 51 51 50 51 52 52 51 51 51
53 53 51 52 51 51 50 51 51 50 51 51 52 52 53 53 53 52 51 51 53 53 54 54 54 55 54 54 53 53 53 53 52 51 51 49 49 47 47 48 49 51 50
52 53 52 51 52 51 51 50 51 50 50 52 52 52 52 52 52 52 52 51 51 52 53 54 54 54 54 54 54 53 53 53 52 53 52 46 45 45 44 44 45 45 46
53 53 52 51 51 52 52 51 51 51 51 50 51 51 52 52 52 52 52 52 52 53 53 54 54 54 54 54 53 52 52 52 51 52 52 52 44 42 42 42 41 41 41
54 53 53 53 52 52 52 52 51 51 51 51 50 51 51 50 50 51 51 52 52 53 53 54 54 53 49 50 53 52 52 52 52 52 52 41 39 38 39 38 37 37 37
54 54 54 55 54 53 52 52 52 51 51 51 51 51 50 49 44 43 47 50 51 51 52 52 45 42 40 39 40 40 46 52 52 50 44 38 36 35 35 35 35 34 33
55 54 54 54 54 55 55 53 52 52 52 51 51 50 50 50 43 42 42 49 51 51 51 48 42 40 38 36 35 35 34 34 33 40 36 34 33 33 34 33 32 32 31
54 54 54 53 53 54 55 55 54 53 53 53 52 51 50 50 43 42 40 47 48 45 47 47 44 37 36 36 33 31 31 30 31 31 30 29 29 29 30 29 27 25 25
51 54 55 55 54 54 54 55 55 54 54 54 54 53 52 51 43 42 41 44 39 36 36 38 38 36 35 35 31 29 28 29 31 31 31 30 30 29 29 29 26 26 24
43 44 46 51 55 54 54 54 54 55 54 54 52 46 47 52 39 41 43 41 34 32 32 33 34 34 32 31 29 28 27 27 27 26 25 26 26 26 26 25 25 23 22
39 39 40 41 45 48 54 55 55 54 44 40 36 35 35 37 37 38 39 39 34 31 30 30 31 32 32 31 30 29 27 27 26 25 24 23 23 23 22 20 19 19 18
34 35 34 35 37 40 40 41 40 39 36 33 33 32 32 33 33 34 34 33 32 29 29 30 31 31 31 30 29 29 28 26 24 23 21 20 19 18 18 17 15 13 12
30 30 31 32 33 33 35 34 34 33 32 32 31 30 30 31 31 31 31 31 30 28 29 30 30 29 28 27 27 26 24 23 21 20 18 17 17 15 14 14 13 10 10
28 28 28 29 29 31 32 33 32 31 29 29 28 27 28 28 29 29 30 30 30 29 28 26 25 24 23 22 22 22 22 21 20 18 16 16 15 13 12 10 11 9 9
26 27 27 27 28 28 29 30 30 31 31 28 28 27 26 26 29 30 29 27 27 25 25 24 22 21 19 19 20 19 19 17 16 16 14 12 11 10 11 10 9 8 7
26 25 26 26 27 27 27 27 31 31 32 31 31 29 29 30 30 30 30 29 28 26 22 20 18 18 17 16 15 14 15 14 13 11 11 10 9 9 8 8 8 7 5
22 23 24 24 24 24 24 24 22 25 28 29 30 30 30 29 29 28 27 25 24 21 17 16 15 15 15 14 13 13 12 12 11 10 9 9 9 8 7 6 5 4 4
21 21 22 23 22 22 20 19 18 18 16 18 24 25 26 26 26 25 24 20 16 17 15 14 13 13 13 12 11 10 10 9 9 7 4 2 3 5 3 3 3 -2 2
21 21 20 20 20 20 19 18 17 16 16 15 16 16 19 21 21 20 19 14 13 12 11 10 10 10 9 8 6 5 4 2 0 -1 -1 -2 -9 -1 -2 0 -1 -2 -1
20 19 18 18 18 18 18 17 16 15 13 13 12 13 14 13 10 9 10 10 10 9 9 8 7 7 6 5 2 3 1 -1 -2 -4 -16 -16 -17 -7 -5 -8 -9 -8 -1
20 19 18 17 16 16 15 15 14 13 11 10 9 10 9 7 6 6 6 5 6 6 5 5 4 2 2 0 1 -3 -5 -13 -6 -7 -7 -6 -19 -10 -4 -4 -6 -3 -2
19 18 17 16 16 15 14 13 13 11 9 7 7 7 6 5 4 3 2 1 0 2 3 1 1 1 0 -1 -4 -12 -12 -16 -14 -10 -11 -10 -9 -10 -9 -11 -12 -13 -7
16 16 15 15 14 13 12 12 10 9 7 6 6 5 3 2 1 -1 -3 -4 -3 -4 -3 -4 -4 -3 -5 -9 -9 -6 -8 -8 -9 -13 -16 -17 -10 -11 -18 -15 -12 -13 -13
15 13 12 11 10 9 8 8 7 6 5 4 3 2 -1 -2 -4 -6 -10 -9 -6 -8 -11 -9 -6 -6 -7 -14 -14 -11 -4 -11 -11 -13 -19 -19 -14 -10 -15 -13 -11 -14 -13
11 10 9 8 7 6 5 5 5 4 3 3 2 -0 -2 -4 -6 -12 -11 -11 -8 -12 -12 -15 -15 -11 -12 -13 -9 -7 -12 -11 -16 -14 -17 -17 -17 -17 -15 -12 -14 -11 -12
9 8 8 7 6 5 3 2 2 2 0 -1 -3 -5 -4 -5 -7 -13 -10 -11 -11 -12 -10 -12 -12 -13 -13 -10 -7 -7 -11 -11 -15 -14 -20 -15 -17 -16 -15 -15 -13 -13 -8

GFSGL_sfc_dewp_102.txt.gz
Dewpoint
53 52 51 51 51 52 51 52 52 54 54 54 54 54 54 54 54 54 53 53 53 53 53 53 53 54 53 54 54 54 53 53 51 52 52 52 52 52 52 53 52 52 52
53 52 51 51 51 51 51 51 51 51 53 54 54 54 54 54 54 53 53 53 52 52 53 53 52 54 54 54 54 53 53 53 52 50 52 51 50 50 50 50 50 51 50
53 52 51 51 51 51 50 51 51 50 51 52 53 53 53 53 54 53 53 52 52 52 53 53 53 54 53 54 54 53 53 53 53 52 52 50 48 47 47 46 46 46 45
52 52 51 51 51 51 50 50 50 50 51 51 52 52 53 53 53 53 52 52 52 51 52 53 53 53 53 53 53 53 53 52 52 52 52 52 49 45 45 45 42 42 41
53 52 52 51 52 51 51 50 50 50 50 51 51 51 52 52 52 52 52 52 51 51 51 52 53 52 49 51 54 53 53 52 52 51 51 51 45 41 41 41 40 37 35
53 54 53 53 52 51 51 51 50 51 51 50 50 51 51 51 45 44 49 52 52 51 51 51 52 48 47 40 39 37 39 51 52 51 51 46 42 37 37 36 35 35 33
55 55 54 54 53 52 52 52 52 51 51 51 51 50 50 51 43 43 43 51 51 51 51 50 47 43 41 37 35 34 33 33 32 41 44 35 33 34 34 33 32 32 28
54 55 55 54 54 55 53 52 52 52 52 51 51 51 51 50 43 42 41 48 48 48 49 49 47 43 39 37 33 31 30 30 30 30 30 29 29 30 31 31 29 26 26
47 49 50 53 54 54 54 54 54 53 53 53 52 51 51 50 43 42 41 46 46 43 42 43 46 41 37 37 32 29 29 29 31 31 30 30 30 30 30 29 27 27 25
40 41 43 44 48 51 53 54 55 54 53 53 52 50 47 50 43 42 42 48 43 35 34 34 36 36 35 33 30 29 26 26 25 25 24 24 24 25 25 24 26 23 23
35 35 35 36 39 41 44 51 53 54 48 41 34 34 34 34 35 37 39 46 41 33 32 31 32 33 32 32 30 28 26 26 25 23 22 21 21 21 21 21 21 21 19
31 31 31 33 34 35 36 37 37 38 34 33 32 31 31 32 34 34 34 33 33 31 30 31 32 32 31 30 28 28 27 25 23 21 19 18 18 18 18 19 19 18 17
29 29 30 30 31 32 33 33 34 33 32 31 29 28 28 30 31 32 32 32 31 30 30 30 29 28 27 26 26 25 23 22 20 18 16 16 17 18 17 16 17 13 9
28 28 29 29 29 30 30 31 31 30 29 29 28 27 27 28 29 29 29 28 26 24 23 23 23 23 22 21 21 21 21 20 18 16 15 15 15 13 12 11 11 11 10
27 27 28 28 28 27 29 30 29 30 30 28 28 28 27 26 28 28 26 25 25 24 23 22 20 19 18 18 18 18 18 16 15 15 14 13 12 11 10 9 8 7 6
25 25 26 26 26 25 24 25 30 30 30 30 29 28 29 29 29 28 28 27 26 24 20 18 17 16 16 15 14 14 14 13 13 12 12 11 10 8 7 6 6 6 5
22 24 24 23 22 23 23 22 20 24 28 28 28 28 27 26 26 26 25 24 24 20 16 16 15 14 14 14 13 12 11 11 10 10 9 8 8 6 6 5 4 3 3
20 21 21 22 21 19 18 18 16 14 13 16 23 25 25 25 25 24 22 18 15 16 14 13 13 13 12 12 11 10 9 8 7 5 4 3 5 4 3 2 2 1 1
20 19 19 19 19 18 18 17 15 14 13 13 14 14 19 21 21 19 17 12 11 10 10 10 10 9 8 7 6 5 4 3 2 1 -0 -1 -2 1 -1 -1 -1 -2 -1
20 19 18 18 17 17 16 14 12 11 10 9 8 10 12 9 7 7 8 9 9 9 8 7 7 7 7 5 4 3 2 1 -0 -1 -7 -6 -5 -2 -3 -4 -4 -3 -2
19 18 18 17 16 15 14 13 11 9 8 7 7 7 5 5 4 3 3 3 4 5 4 3 3 4 3 3 2 0 -2 -4 -2 -3 -3 -4 -10 -5 -4 -3 -4 -3 -3
18 17 16 15 15 13 13 12 10 8 7 6 5 4 3 3 3 2 1 0 2 2 3 3 2 1 1 0 -2 -6 -8 -9 -8 -6 -6 -7 -6 -6 -6 -6 -7 -7 -6
16 15 14 13 12 11 9 8 6 4 4 4 3 2 1 -0 -1 -1 -2 -2 -1 -2 0 -0 -0 -1 -3 -8 -6 -4 -4 -5 -6 -9 -9 -9 -6 -6 -10 -8 -8 -8 -8
14 12 11 10 9 8 6 5 4 3 2 0 -1 -1 -3 -4 -5 -5 -4 -4 -5 -6 -5 -4 -3 -3 -3 -9 -9 -4 -2 -8 -6 -8 -12 -10 -7 -7 -9 -8 -8 -9 -9
10 8 7 6 5 4 3 3 2 2 1 -1 -2 -3 -3 -4 -5 -8 -8 -5 -6 -7 -6 -8 -6 -6 -8 -6 -5 -5 -10 -11 -12 -11 -11 -11 -11 -12 -11 -9 -10 -9 -9
7 7 6 5 4 2 1 0 -1 -1 -2 -2 -3 -5 -5 -5 -7 -10 -8 -7 -7 -7 -7 -8 -8 -9 -8 -6 -6 -7 -11 -11 -13 -14 -15 -9 -11 -10 -11 -11 -10 -9 -8

GFSGL_sfc_dewp_105.txt.gz
Dewpoint
54 55 54 54 55 55 55 54 55 56 55 56 56 55 55 55 54 53 52 52 53 52 53 53 53 53 54 55 54 53 53 53 51 53 55 55 55 55 54 56 55 55 55
54 54 53 53 54 54 54 55 56 55 55 55 55 55 55 55 54 53 51 51 52 52 52 53 52 53 54 54 54 53 54 55 53 51 54 54 54 55 55 55 53 52 53
54 53 52 52 53 54 54 54 54 55 55 55 55 54 54 54 53 52 52 50 50 52 52 52 51 51 53 54 53 54 54 54 55 54 53 54 55 53 53 52 51 49 45
53 52 51 52 53 53 53 54 53 54 55 54 54 54 54 54 54 53 53 52 51 51 52 53 52 51 51 52 53 54 54 54 54 53 53 53 54 54 52 52 48 44 42
53 52 51 52 52 53 53 53 53 53 53 54 54 55 54 54 53 53 53 53 53 52 53 53 53 52 48 50 53 53 53 53 53 52 51 52 52 46 48 49 46 37 33
53 53 52 52 52 53 53 53 53 52 52 53 52 53 54 53 46 46 50 53 52 52 51 52 51 48 48 44 41 41 48 53 52 52 51 50 51 48 42 41 37 35 33
55 54 53 52 52 53 53 52 52 52 52 52 52 52 53 53 44 44 44 53 53 52 52 51 51 50 46 41 36 35 34 33 32 44 49 44 39 39 37 35 35 33 28
55 55 54 54 53 52 52 52 52 52 52 52 52 52 52 52 42 43 42 53 54 54 54 54 53 52 47 41 37 33 33 33 33 33 33 32 32 33 33 32 29 26 25
42 43 45 47 52 54 53 53 53 53 53 52 52 51 51 51 43 41 42 50 51 51 52 53 53 54 41 39 34 32 30 30 31 31 30 30 29 30 31 31 29 27 23
37 37 38 39 42 43 44 52 54 54 53 53 46 39 37 44 37 40 42 48 46 43 35 35 35 44 36 35 35 31 27 27 25 24 24 24 24 25 25 25 27 26 23
33 33 34 35 36 37 40 40 42 51 39 35 33 33 34 34 36 37 39 45 38 33 32 32 32 33 33 33 32 29 26 24 23 22 21 21 21 21 21 23 23 24 20
31 31 31 32 33 34 35 36 36 36 34 32 31 31 31 33 34 35 36 35 34 33 32 31 31 31 30 29 27 27 25 23 22 20 19 18 18 19 19 20 21 19 17
30 30 30 30 31 31 32 32 33 32 31 30 30 29 29 30 31 32 32 32 31 30 30 30 29 28 27 26 26 25 23 21 19 17 16 17 18 18 19 19 17 14 12
28 28 28 28 29 30 30 30 30 31 31 30 29 28 28 28 27 27 26 26 25 25 23 23 22 22 22 21 21 21 21 21 19 17 16 16 16 15 14 15 14 13 10
27 26 26 26 27 27 28 29 29 30 30 28 28 28 25 24 26 26 26 27 26 25 26 24 23 22 20 19 19 18 19 17 16 16 15 14 13 12 11 11 9 8 9
26 25 26 25 25 25 25 26 29 29 29 29 28 27 28 28 28 27 26 25 24 24 24 22 21 21 19 17 16 15 14 14 13 13 13 12 11 10 8 9 9 9 8
26 26 24 23 23 23 22 23 22 25 28 28 28 28 28 27 27 26 25 23 22 22 23 21 21 20 18 15 14 12 12 12 12 11 10 10 9 9 9 8 8 8 7
23 22 24 23 23 22 21 21 21 19 19 20 25 26 26 25 24 23 21 21 20 19 19 18 17 16 14 13 12 10 9 9 8 7 8 9 9 8 7 6 6 8 7
22 22 22 22 21 20 20 20 19 19 19 19 19 16 18 19 19 19 18 18 16 14 13 13 14 12 11 10 12 11 11 9 8 8 7 6 8 7 6 5 5 3 5
21 20 21 21 21 20 19 18 17 16 15 15 14 15 15 15 14 14 15 15 14 12 11 9 9 10 11 10 11 10 9 8 7 6 7 7 8 8 6 6 6 7 5
21 20 19 19 19 18 17 15 14 13 12 11 10 10 9 11 11 11 10 11 11 10 10 9 10 10 10 10 8 9 7 8 6 5 6 5 6 6 5 6 6 5 3
20 19 19 18 17 16 15 14 13 11 9 9 8 7 7 10 9 8 8 9 9 9 9 8 8 8 8 7 7 8 6 6 5 5 5 4 5 5 5 4 5 5 4
18 18 16 15 14 12 12 10 10 10 9 8 7 6 7 7 7 6 6 7 6 6 6 6 6 4 5 6 7 7 5 5 4 5 4 5 4 5 5 4 3 4 3
17 16 13 13 12 11 11 10 8 6 6 6 6 6 5 5 5 4 5 5 5 5 5 4 4 3 3 5 6 6 4 5 5 3 1 2 3 2 3 2 3 1 2
14 13 12 11 10 10 9 8 7 7 6 6 5 4 3 4 3 4 4 3 1 3 1 2 3 2 2 1 2 2 1 -1 1 -1 2 -0 -1 -3 -1 1 0 1 1
10 10 10 10 10 9 8 7 7 6 5 5 4 4 3 2 1 2 1 -0 -1 -1 -0 0 -0 -1 -1 1 1 -1 -2 -3 -3 -6 -1 0 -0 1 1 -0 -2 1 1

GFSGL_sfc_dewp_108.txt.gz
Dewpoint
55 55 57 57 57 56 56 55 56 57 56 56 58 58 56 55 55 54 53 54 54 55 55 54 54 55 54 55 55 52 53 50 48 48 53 56 56 55 54 56 56 56 53
55 56 56 56 56 55 55 55 56 56 56 56 56 56 55 55 55 53 52 53 53 53 53 53 53 54 53 54 54 53 51 52 52 50 51 54 55 54 55 57 57 53 52
55 55 56 55 55 54 55 55 55 56 55 56 56 56 55 55 54 53 53 53 53 53 53 52 52 53 53 53 54 53 54 53 53 51 50 53 56 56 54 55 55 51 44
54 54 54 55 54 55 55 55 55 55 55 55 54 55 55 55 54 53 52 51 52 52 53 52 52 53 53 53 53 54 53 53 54 53 52 53 54 55 54 53 48 47 43
54 54 54 54 53 54 54 54 54 54 55 55 55 55 56 55 54 54 52 52 51 51 52 51 52 51 48 49 51 52 53 53 52 52 52 52 52 51 50 52 50 39 36
54 53 53 53 52 53 54 54 54 54 53 55 55 55 55 54 46 46 50 52 51 50 50 51 52 48 48 43 44 43 48 52 52 51 51 50 51 50 48 47 39 36 34
54 54 53 53 52 53 53 53 53 53 54 54 53 55 55 54 44 45 44 54 53 52 52 52 52 51 49 49 39 37 35 34 35 49 51 51 48 46 42 40 37 35 30
51 52 53 53 53 53 52 52 53 53 53 53 54 54 53 54 43 44 43 54 53 53 53 52 52 51 49 45 40 36 34 34 34 35 35 33 34 35 38 38 34 27 26
40 41 42 46 49 53 53 53 54 53 53 54 53 53 53 53 41 42 43 52 54 54 54 54 53 53 46 41 38 33 30 30 31 31 30 30 30 30 31 30 28 27 23
36 37 38 40 41 42 43 46 52 54 54 52 41 39 38 43 37 40 42 50 49 44 39 39 35 44 39 37 38 32 28 26 26 24 24 25 25 26 26 27 30 25 22
34 34 35 35 37 37 39 39 42 44 37 35 33 33 34 35 36 37 39 48 40 34 33 32 33 34 34 34 33 29 25 24 23 22 22 21 21 22 22 23 24 26 22
32 31 32 33 33 34 35 35 36 35 33 32 31 31 31 32 34 35 36 36 35 33 31 31 32 32 31 30 28 27 26 24 22 21 20 20 20 20 22 21 22 21 21
29 29 30 31 31 31 33 33 33 33 31 30 29 28 27 28 29 31 31 31 31 29 29 29 28 28 27 26 25 24 24 23 22 21 19 19 20 21 21 20 20 19 16
28 28 28 28 29 30 30 30 31 31 30 29 28 26 26 26 26 26 26 25 25 24 24 24 23 24 24 25 24 25 26 26 23 20 19 18 19 18 18 19 18 17 16
27 27 28 27 27 27 28 28 28 30 30 28 27 27 26 25 27 27 27 27 26 26 28 28 27 26 27 26 24 24 24 23 21 19 18 16 15 14 15 15 14 14 12
28 26 27 26 27 26 26 26 29 29 29 29 28 28 28 28 29 28 27 27 27 28 31 29 27 26 25 23 21 19 18 17 16 16 16 13 13 13 13 14 14 13 12
29 30 27 26 26 26 26 25 24 27 28 28 28 28 28 27 26 25 26 26 27 27 27 25 24 24 22 19 17 16 16 16 15 15 15 16 15 13 14 13 14 13 12
27 26 28 28 27 27 26 26 27 25 24 24 24 25 24 24 25 26 25 26 25 24 22 22 22 20 17 15 14 13 13 14 14 14 15 16 16 15 14 12 13 15 13
26 26 26 26 26 25 26 25 25 25 24 24 24 22 23 22 22 22 22 23 20 18 17 16 18 15 15 14 17 17 17 16 15 15 15 14 16 14 12 11 10 8 10
25 24 25 25 25 25 24 24 23 22 22 21 21 22 23 22 22 21 21 21 19 16 15 13 13 15 16 15 17 16 15 15 14 13 15 16 17 15 13 12 14 15 10
25 24 24 24 24 23 22 22 21 21 20 18 16 16 15 18 17 17 17 17 16 16 16 14 15 16 15 15 13 14 13 14 12 12 13 12 15 14 13 13 14 11 8
23 23 22 22 22 22 21 19 19 17 15 14 14 14 13 17 15 15 14 15 16 15 15 15 14 13 13 13 13 14 12 12 12 12 11 11 12 12 13 12 13 13 11
23 22 21 19 19 19 19 17 17 17 16 15 13 13 14 15 14 13 13 14 12 13 13 13 12 10 11 12 13 13 11 10 10 12 12 13 12 13 13 13 10 10 10
21 21 18 19 19 17 17 16 14 12 13 14 14 14 13 13 12 11 11 12 11 12 11 9 8 7 7 11 12 10 8 10 10 8 5 9 10 8 10 9 9 6 8
21 20 19 18 17 16 16 15 14 14 14 13 13 12 10 11 10 11 10 8 7 8 6 7 8 6 4 4 5 5 4 2 4 3 8 5 4 2 5 6 6 6 6
16 15 16 16 16 15 15 14 13 13 12 12 12 11 10 8 8 8 6 5 5 4 4 5 4 1 -7 3 3 1 -0 -1 1 -2 2 5 6 6 7 6 3 6 5

GFSGL_sfc_dewp_111.txt.gz
Dewpoint
56 57 58 58 59 59 58 58 57 57 57 57 59 58 57 56 56 55 55 56 56 56 56 55 55 56 55 55 54 53 52 51 47 49 51 57 57 57 57 58 57 57 51
56 57 57 57 58 58 58 56 57 57 56 56 57 58 57 56 55 54 54 54 54 55 55 55 55 55 54 55 55 53 51 51 51 49 50 54 55 56 55 56 56 54 46
56 56 56 56 58 57 56 56 56 57 55 56 56 57 56 56 55 55 54 53 54 54 55 54 54 54 53 53 54 53 53 53 54 51 50 54 55 56 55 55 52 47 41
56 56 56 57 57 56 55 56 56 56 55 55 55 56 56 56 55 54 53 53 53 54 55 54 54 53 53 53 53 53 53 53 53 53 53 53 53 54 54 53 49 46 42
55 55 55 56 56 56 55 55 56 55 55 54 55 55 56 55 54 54 53 53 53 53 53 54 53 52 49 51 53 53 53 53 52 52 52 51 51 53 51 51 49 38 38
55 54 55 55 56 55 55 55 55 56 55 55 55 55 55 53 46 46 51 53 52 52 52 52 52 48 48 45 46 46 50 52 51 51 51 49 51 50 51 50 42 36 35
54 54 54 54 54 55 54 54 54 54 55 55 55 55 54 55 45 44 44 53 52 52 51 52 51 51 49 51 40 39 36 35 35 49 51 50 48 46 49 44 39 37 33
50 52 54 54 53 53 53 54 54 54 54 55 55 55 55 55 43 43 42 54 53 53 52 52 52 52 51 49 42 36 33 33 34 35 33 33 34 36 37 37 33 27 27
39 41 43 47 51 53 53 53 54 54 54 54 54 55 54 49 39 41 45 53 53 53 53 53 52 52 46 43 38 32 30 29 31 31 31 31 31 32 33 32 29 29 24
35 36 37 40 42 43 44 47 50 54 51 44 40 38 36 42 36 38 44 52 48 41 37 35 35 42 40 39 37 33 28 26 26 26 26 26 26 26 27 29 30 26 23
34 34 35 35 37 38 39 40 42 39 36 35 33 32 32 34 35 37 39 49 42 34 33 32 33 35 35 35 34 32 27 25 24 24 23 23 23 23 23 24 26 27 24
33 32 32 33 33 35 35 35 35 35 33 32 30 29 29 31 33 34 35 35 35 33 31 31 32 33 32 31 29 28 26 24 24 23 22 22 22 22 23 23 25 25 26
31 31 31 32 31 32 32 33 32 32 31 30 28 27 26 27 28 30 31 31 30 28 28 28 28 28 27 26 26 26 25 24 23 22 21 22 23 22 22 21 20 18 18
28 29 28 28 28 29 29 29 30 30 29 28 27 26 26 26 26 26 26 26 26 25 25 26 25 25 24 26 26 26 26 26 25 23 22 23 21 19 18 18 18 17 15
27 27 27 27 27 26 28 28 27 29 29 27 27 27 26 25 28 28 27 27 27 27 28 28 27 26 25 26 26 26 26 24 23 22 20 18 15 15 15 16 16 15 14
27 26 27 26 26 26 25 25 29 29 30 30 28 28 29 29 29 29 30 31 31 30 30 29 29 28 26 24 22 21 20 19 17 17 17 15 15 16 16 17 17 16 14
29 30 28 28 28 28 27 25 24 25 27 28 28 28 28 28 28 28 29 28 28 28 27 27 27 26 25 21 20 19 18 18 17 18 18 18 17 16 17 16 16 15 12
29 28 29 29 30 30 29 28 28 26 24 25 26 26 27 28 28 27 28 27 26 26 25 25 24 22 19 17 16 16 16 17 18 17 19 19 19 17 17 15 16 16 13
28 28 28 29 29 29 29 28 28 28 26 26 26 26 26 24 24 23 24 25 22 20 19 18 20 18 18 18 20 20 20 19 19 19 18 17 19 16 14 13 11 11 12
28 28 27 28 27 27 26 25 24 23 22 21 22 26 26 23 24 25 25 24 21 17 17 16 16 17 18 18 19 19 19 18 17 17 18 19 19 17 15 14 15 14 10
28 27 26 25 25 25 24 23 22 21 20 18 18 20 19 20 20 20 19 20 19 18 19 17 18 18 18 18 16 17 16 17 15 15 15 15 17 15 14 13 13 11 9
26 25 25 24 24 24 23 21 20 18 16 16 16 17 17 19 17 16 16 17 18 17 17 17 16 16 16 15 16 17 15 15 15 14 13 12 13 13 13 12 12 12 11
26 26 24 23 22 22 22 20 20 20 18 18 16 16 16 17 16 15 15 16 15 15 15 15 14 13 14 15 16 15 13 12 13 13 13 12 11 13 13 12 10 10 10
24 23 20 21 21 19 19 18 17 16 17 17 18 17 16 15 15 13 14 14 14 14 13 11 10 10 12 14 13 12 11 12 11 9 10 10 10 9 10 9 9 8 8
23 22 22 20 20 19 19 18 18 17 17 17 16 15 14 14 13 13 12 11 10 10 9 10 10 7 6 5 6 5 3 2 3 4 9 7 7 5 6 7 8 7 8
18 18 19 19 19 19 18 17 17 16 15 15 15 14 13 12 11 11 9 8 8 7 7 7 5 4 6 6 3 1 0 -0 2 -1 2 6 7 7 8 8 6 7 6

GFSGL_sfc_dewp_114.txt.gz
Dewpoint
48 54 57 57 59 60 60 60 59 59 59 59 59 59 58 57 57 57 56 56 55 55 56 56 55 56 56 56 56 54 53 52 48 51 53 56 56 56 56 57 57 51 47
46 55 57 59 58 59 60 59 59 57 58 59 59 58 57 56 56 56 55 56 55 55 55 55 55 56 55 55 55 54 54 53 50 50 52 53 54 55 55 54 56 49 44
45 53 57 57 58 58 59 57 57 57 57 56 58 57 56 56 55 55 55 55 55 55 55 55 55 55 54 55 54 53 53 53 52 50 49 52 53 54 54 53 46 42 41
43 52 56 56 57 57 57 57 57 57 55 54 58 57 56 55 55 55 54 54 54 55 55 55 55 55 53 53 53 53 53 52 52 52 51 52 52 53 53 51 46 42 40
41 48 55 56 57 57 56 56 56 57 55 55 56 56 56 55 55 54 54 53 53 53 54 54 55 53 50 51 53 53 53 52 51 51 50 51 50 50 50 51 47 39 37
42 47 56 56 56 57 56 56 56 56 55 54 53 56 55 54 46 46 51 53 53 53 52 53 53 48 48 46 46 47 50 52 51 50 50 48 50 50 49 48 40 37 35
43 53 55 55 56 56 56 55 55 55 55 55 54 54 54 53 45 45 45 53 52 52 52 52 52 51 48 50 41 38 36 36 38 50 50 48 47 47 47 46 41 37 35
36 41 50 55 55 56 55 55 55 55 55 55 55 55 54 50 43 43 43 53 52 52 51 52 52 50 50 47 40 34 33 33 34 35 35 33 34 36 37 35 34 28 28
33 35 38 43 54 55 54 54 55 54 55 53 50 47 46 40 38 40 45 52 52 51 50 43 49 51 44 42 38 33 30 30 32 32 32 32 32 32 34 34 31 30 26
32 33 35 37 42 46 49 51 50 50 43 39 36 35 35 38 36 39 43 51 44 37 35 35 35 42 39 38 38 33 29 27 27 26 26 26 26 27 28 29 32 29 25
32 33 34 34 36 37 39 41 41 38 35 33 31 31 32 33 34 38 40 46 38 34 33 32 33 34 36 35 36 34 28 26 25 24 24 24 24 24 24 25 26 27 24
32 31 32 32 33 34 34 35 35 34 32 30 29 28 28 30 32 34 35 35 34 32 30 31 31 32 32 31 29 29 27 26 25 24 22 21 21 21 22 23 24 24 26
30 29 30 31 32 32 32 32 32 31 30 28 27 26 26 26 27 30 30 30 30 28 28 29 29 28 28 27 27 27 26 25 24 21 20 20 21 23 23 21 20 19 18
30 29 28 28 28 30 30 30 29 29 28 27 26 25 26 26 26 27 26 27 27 26 26 26 26 26 25 25 26 26 25 24 23 23 22 23 24 21 20 20 19 17 15
30 28 28 27 26 26 28 28 27 28 28 27 27 27 26 25 27 28 27 27 28 28 27 27 26 26 25 25 25 25 26 25 24 24 21 19 18 18 18 19 19 18 16
28 28 28 27 25 24 24 25 29 29 30 30 30 29 30 31 32 31 32 32 31 29 27 26 26 25 24 23 22 20 20 19 19 19 19 18 18 19 18 19 20 18 15
29 29 29 29 28 27 25 23 22 25 28 30 30 31 30 29 29 29 29 28 28 26 25 25 24 23 21 20 19 18 18 20 21 19 19 17 17 18 18 18 18 18 16
28 28 29 29 29 28 26 25 24 22 22 24 27 26 27 28 29 28 27 25 23 23 22 21 20 19 18 18 18 18 19 19 19 19 18 16 14 17 16 17 17 12 14
28 28 28 28 28 27 27 26 26 26 26 26 26 26 26 25 25 24 23 21 19 18 18 18 19 18 19 18 17 17 17 17 16 15 16 16 13 14 12 12 10 8 9
28 28 28 28 27 26 25 23 21 21 20 20 23 24 23 21 20 20 21 20 19 18 17 17 17 18 17 17 14 13 13 14 14 14 11 11 10 11 9 11 10 11 12
28 27 26 26 25 25 24 22 20 19 18 18 19 20 19 18 17 17 18 19 18 18 17 17 17 17 17 16 16 15 14 12 12 12 11 11 9 8 12 11 10 11 10
25 24 24 24 24 24 23 21 19 17 17 16 17 17 16 17 16 16 16 16 16 16 16 16 15 16 16 16 14 11 10 11 11 8 7 8 10 8 9 7 8 7 10
26 25 25 24 23 23 23 21 20 19 18 17 17 16 16 15 14 14 13 13 12 12 14 14 13 12 13 12 13 13 10 8 6 8 8 6 9 7 5 8 6 5 5
25 23 22 22 21 19 18 18 17 17 17 17 16 15 14 13 12 11 12 12 13 11 8 7 6 5 8 8 8 5 4 4 6 5 2 2 9 6 6 5 6 3 1
24 23 23 22 20 19 19 18 17 17 16 16 15 14 13 13 11 10 9 9 9 7 7 8 5 3 2 1 0 -0 -3 -2 -5 -3 1 3 1 -2 0 0 -1 1 -0
20 20 20 20 19 19 18 17 16 16 15 14 14 13 12 11 10 9 9 7 5 6 5 3 3 5 3 0 -1 -3 -6 -7 -8 -7 -7 1 2 2 3 1 1 1 1

GFSGL_sfc_dewp_117.txt.gz
Dewpoint
41 42 44 46 51 59 59 59 60 60 60 61 60 59 59 58 58 58 57 57 56 56 56 56 55 56 56 56 56 55 54 53 49 51 53 54 54 56 56 54 52 50 47
40 41 43 46 56 58 58 59 60 59 60 59 58 58 58 58 58 57 56 56 55 55 55 55 55 56 56 56 55 54 54 53 51 50 52 53 54 55 55 54 50 46 46
39 39 42 45 58 58 58 59 59 59 59 59 58 58 58 57 56 56 56 56 55 55 55 55 55 55 55 55 55 54 54 54 53 51 51 52 53 55 52 47 43 42 42
37 38 41 44 56 58 58 58 58 58 58 58 58 58 57 56 56 56 56 55 56 55 55 55 55 55 55 55 54 54 53 53 53 51 51 51 52 53 52 47 44 41 39
37 38 40 44 55 57 58 58 58 57 56 57 58 57 56 56 55 55 55 54 54 54 55 55 55 54 50 53 54 54 53 52 52 51 50 50 50 50 50 50 46 39 37
36 37 39 47 55 56 57 57 57 56 55 56 56 56 55 55 46 46 52 54 53 53 53 53 53 49 48 46 46 47 51 52 51 50 49 48 49 49 49 49 40 37 36
35 36 37 40 56 56 56 56 56 56 55 54 55 55 55 55 44 45 45 53 53 53 52 52 51 51 49 49 39 38 37 37 41 51 49 48 47 48 48 46 42 38 36
33 34 35 37 45 56 56 56 56 56 55 54 54 55 53 47 43 43 43 53 52 52 52 52 51 50 49 44 39 35 33 34 35 37 38 34 34 36 38 38 36 29 30
31 32 34 36 38 54 55 55 56 55 55 51 51 48 44 41 39 42 46 52 51 48 45 43 51 50 42 41 37 32 31 30 33 33 33 33 33 33 35 35 32 32 28
30 32 33 35 35 38 51 55 54 48 42 39 35 35 36 38 37 40 46 50 41 37 35 35 35 42 38 38 37 34 30 28 28 27 27 27 27 28 29 30 34 32 26
31 31 32 33 34 34 38 45 42 37 35 32 31 31 32 33 35 39 42 44 37 33 32 32 33 35 36 36 37 35 31 27 26 25 24 24 24 24 25 26 27 30 26
30 29 29 31 33 33 33 35 35 34 31 30 28 27 29 31 33 35 36 35 35 32 30 31 32 33 32 31 30 29 28 27 25 24 22 22 21 22 23 24 25 26 27
29 27 27 29 30 32 31 31 30 31 29 28 27 26 25 27 29 31 31 31 30 29 29 29 29 29 28 28 28 28 26 25 24 22 20 20 21 22 22 20 20 18 18
29 28 27 26 27 29 29 30 29 28 27 27 26 25 25 26 26 27 27 28 28 27 26 26 26 26 26 26 25 25 25 25 23 22 22 23 24 21 20 19 16 15 13
29 29 27 26 26 27 28 28 28 29 29 27 27 28 26 26 28 29 28 27 28 28 28 27 26 25 24 24 24 24 24 24 23 23 22 21 19 19 19 20 19 16 14
28 28 28 27 26 25 26 26 30 31 32 32 32 30 31 32 32 32 31 31 30 28 26 24 24 23 22 22 21 21 21 20 20 20 19 19 18 18 18 19 17 15 14
27 28 28 27 26 25 24 24 23 27 30 31 31 31 31 30 30 30 29 28 27 25 23 22 21 20 20 19 19 19 19 19 19 18 17 18 18 17 17 17 16 15 14
28 27 28 28 27 26 25 24 24 23 22 24 28 27 28 27 26 24 23 22 20 20 20 19 19 19 19 19 19 18 18 18 18 17 15 14 14 15 14 13 13 8 12
28 28 27 27 25 24 23 22 21 22 24 23 23 22 23 23 22 22 21 19 18 18 18 17 17 17 17 16 16 16 15 12 13 12 12 12 8 11 10 10 10 7 10
27 26 26 26 24 22 21 20 19 19 19 19 20 20 20 19 18 19 19 19 18 18 18 17 17 16 15 14 12 11 12 12 12 12 8 6 4 10 7 8 7 7 11
24 25 25 24 23 22 20 19 18 17 17 17 17 17 17 16 15 15 15 15 16 16 15 15 15 15 15 14 14 12 10 9 9 8 8 8 5 6 9 8 8 8 10
24 24 23 23 23 22 20 19 18 17 16 15 15 15 14 13 13 12 11 11 12 13 13 12 13 13 12 11 10 10 7 5 5 3 5 6 7 6 4 3 5 5 6
22 21 20 20 20 19 19 18 17 16 15 14 14 13 13 12 11 10 8 7 8 7 7 6 7 8 8 4 4 4 4 2 0 -1 1 1 4 3 -2 0 -0 -1 -2
21 19 19 17 17 16 15 15 15 14 14 12 11 11 10 9 8 7 7 8 7 5 3 4 3 3 2 -1 -1 1 1 -4 -2 -2 -4 -4 -1 1 -1 -1 1 -4 -3
17 17 18 16 15 13 14 13 13 12 11 9 10 10 8 7 6 4 4 4 2 1 1 1 2 -2 -5 -6 -5 -5 -7 -7 -8 -9 -5 -4 -8 -6 -5 -4 -7 -3 -6
17 16 16 16 14 13 11 10 10 7 7 7 6 4 4 4 2 -2 -1 -0 -0 -1 -2 0 0 -4 -4 -4 -4 -7 -9 -9 -10 -10 -12 -4 -6 -7 -7 -8 -7 -8 -4

GFSGL_sfc_dewp_120.txt.gz
Dewpoint
38 39 39 40 41 45 47 52 59 60 61 61 62 61 60 59 59 58 58 57 57 56 56 56 56 57 56 56 56 55 54 54 51 53 54 55 53 55 52 52 51 50 47
38 38 39 39 41 44 47 55 59 60 60 61 61 61 60 59 59 58 57 57 56 56 56 56 55 56 56 56 55 54 54 54 52 51 53 54 53 55 53 51 49 48 47
37 38 38 39 41 43 45 57 59 59 59 60 61 59 59 58 58 57 57 56 56 56 56 55 55 56 56 56 55 54 54 54 53 52 51 52 53 53 47 45 43 43 43
36 37 37 38 40 42 45 54 59 59 59 59 59 58 58 57 57 57 56 56 56 55 55 56 56 55 55 55 54 54 54 53 53 51 51 51 52 53 50 44 42 41 40
35 36 36 38 39 41 47 53 58 58 59 59 58 58 57 56 57 56 56 56 55 55 55 55 56 54 50 53 55 54 54 53 52 51 50 50 50 50 49 48 43 38 37
33 33 34 36 38 40 44 54 57 57 58 58 57 56 56 56 46 47 52 55 55 54 54 54 55 49 49 45 46 47 52 53 52 51 50 49 49 50 49 48 39 37 36
32 32 33 35 36 38 41 54 57 57 57 57 57 56 55 55 45 45 45 54 54 54 53 53 52 52 49 50 39 39 38 39 42 52 51 50 48 49 49 46 42 39 38
30 30 31 33 34 37 39 47 56 56 56 56 55 55 55 50 43 43 43 53 52 52 52 52 52 50 48 43 39 35 34 34 36 39 45 37 38 41 46 45 40 31 31
29 29 30 31 33 36 37 40 56 56 55 55 54 52 49 44 41 42 47 51 51 48 46 43 51 49 40 41 37 33 31 31 34 34 34 34 34 35 36 37 34 34 28
29 29 29 30 31 34 35 37 55 52 44 42 38 38 39 40 39 41 47 48 41 37 35 36 35 45 37 37 38 35 31 29 29 28 28 28 29 29 30 33 36 35 27
29 28 28 29 30 33 34 35 40 39 36 34 32 32 33 34 37 40 43 45 38 34 33 32 33 36 37 37 37 36 32 28 27 27 26 25 25 25 26 27 29 33 29
29 26 26 28 29 31 33 32 33 34 32 31 31 29 30 32 34 37 38 36 35 32 30 31 33 34 34 32 31 30 29 27 27 25 24 23 23 23 24 25 26 27 28
27 26 26 27 29 30 30 30 30 31 30 31 30 27 26 29 31 32 32 32 31 30 30 31 31 31 30 29 30 29 27 26 25 23 21 21 22 23 24 23 23 21 20
28 26 26 26 27 28 30 29 29 28 28 28 27 26 26 27 27 28 29 29 29 27 27 26 26 26 26 26 26 26 25 25 24 22 22 22 23 21 18 17 16 16 16
27 27 26 26 26 27 28 29 29 30 30 28 28 28 27 26 28 29 28 27 27 28 27 27 26 25 24 24 24 24 25 24 23 23 22 20 18 17 18 20 18 15 14
27 26 26 25 25 25 26 26 30 30 31 31 31 30 30 31 31 31 31 30 30 29 25 23 23 23 22 22 22 22 23 23 23 23 21 19 19 18 17 17 17 16 15
26 27 26 26 25 24 24 24 23 26 29 30 30 30 30 30 29 29 29 28 27 25 21 21 21 21 21 21 21 21 20 21 21 20 19 18 18 18 17 16 16 15 14
27 26 25 24 23 23 22 23 24 22 20 21 26 27 27 28 27 27 27 25 21 21 20 20 19 20 20 19 19 18 18 18 18 17 17 17 16 15 14 13 12 10 12
26 25 24 23 22 21 21 21 21 21 20 20 20 20 22 24 23 22 21 19 18 17 18 17 18 18 18 17 17 16 15 14 14 13 12 11 9 11 10 11 10 9 11
24 24 23 22 21 20 20 19 18 18 17 16 16 17 18 17 16 16 17 18 18 17 17 16 16 16 16 15 15 15 14 13 12 11 8 8 7 9 7 7 7 9 10
22 22 21 21 20 20 19 18 17 16 15 14 14 15 14 13 12 13 13 13 14 14 15 15 14 15 14 13 13 11 9 8 9 9 9 7 7 7 8 8 8 8 8
22 21 21 21 20 19 19 18 17 16 15 13 13 12 12 11 11 10 9 9 9 10 11 11 9 8 8 9 9 7 5 4 4 6 6 6 6 4 5 5 4 3 6
20 18 18 18 18 17 17 16 14 14 12 12 11 10 10 9 8 7 6 6 6 6 7 7 5 4 3 2 3 3 3 1 -1 -3 2 2 3 2 -0 -0 -1 -3 -3
19 18 17 16 16 14 13 13 12 11 11 10 8 8 7 6 5 4 4 3 3 2 2 0 -0 -0 -0 -2 -2 -1 -3 -7 -3 -4 -6 -2 0 1 -2 -2 -3 -8 -8
17 17 15 13 12 10 11 11 10 9 8 7 6 5 5 5 4 2 1 0 0 -0 -1 -2 -3 -5 -7 -9 -8 -7 -9 -8 -10 -10 -5 -4 -4 -5 -5 -7 -10 -5 -9
15 14 13 12 11 10 7 7 5 6 5 4 2 -1 -3 -1 -1 -5 -4 -1 -0 -1 -2 -6 -6 -6 -6 -5 -6 -9 -11 -10 -11 -13 -11 -6 -6 -9 -9 -10 -9 -10 -7

GFSGL_sfc_dewp_123.txt.gz
Dewpoint
37 37 38 38 39 40 42 45 47 50 53 60 60 60 61 60 60 59 59 58 58 57 57 56 56 57 56 56 56 55 54 54 52 53 55 55 55 55 53 52 51 50 47
36 36 37 38 39 40 41 43 46 49 54 58 60 60 61 60 59 59 58 58 57 56 56 56 56 56 56 56 56 55 55 54 53 52 53 53 53 53 52 51 50 48 48
34 35 36 37 38 38 40 42 45 47 56 57 60 60 60 60 59 59 58 57 57 56 56 56 55 56 55 56 55 55 55 54 54 52 52 53 53 49 45 45 43 43 43
33 33 35 36 36 37 39 41 44 48 56 59 60 60 60 59 59 58 58 57 56 56 56 56 55 55 55 55 55 54 54 54 53 52 52 52 52 50 48 43 41 41 39
32 32 33 34 35 36 38 40 43 48 56 59 59 59 59 59 58 57 57 56 56 55 55 55 55 54 50 53 55 54 54 53 52 52 51 50 50 49 47 46 41 38 37
31 31 32 32 33 35 37 39 41 45 55 58 59 58 58 58 48 47 53 55 55 55 54 54 55 50 49 46 46 47 51 53 52 51 51 50 50 51 49 46 39 37 36
30 30 31 31 32 33 35 37 40 43 54 57 58 58 57 57 45 46 46 55 55 54 54 54 53 53 50 52 42 42 39 40 42 52 50 50 49 51 50 44 41 39 38
28 28 29 30 30 32 34 36 38 41 50 57 57 57 56 55 44 44 44 54 54 54 54 54 53 51 51 45 41 36 35 35 37 42 50 44 45 49 50 48 42 33 32
28 27 27 28 29 31 33 34 37 40 44 56 56 55 55 50 42 42 47 52 52 50 49 49 52 50 40 41 38 34 32 32 35 35 35 35 35 36 39 41 36 36 30
28 27 27 28 29 30 31 34 35 38 48 44 39 44 44 45 41 41 48 48 43 39 37 37 36 45 37 37 38 36 33 30 30 31 30 30 31 32 32 34 39 38 28
28 26 26 27 28 29 30 33 34 35 36 35 34 34 35 37 40 42 43 46 40 35 34 33 34 36 37 37 37 37 34 30 28 28 28 27 27 27 27 29 30 34 32
28 25 25 27 28 29 29 30 32 31 33 32 33 32 32 33 37 39 40 38 37 35 32 32 34 35 35 34 32 31 30 29 28 27 26 24 24 23 25 26 28 29 30
25 24 24 25 27 27 28 28 29 30 29 29 31 31 29 30 32 33 34 33 32 31 32 32 32 32 31 30 30 30 29 28 27 25 22 21 22 23 25 25 26 25 25
24 23 24 24 25 26 27 28 28 28 28 28 28 28 28 28 28 28 29 30 30 28 27 26 26 26 26 26 26 26 26 26 25 23 22 22 23 22 22 23 23 23 21
26 24 24 24 24 25 27 27 27 28 29 28 28 28 28 27 29 30 29 27 27 27 27 27 26 25 24 24 24 24 25 24 23 23 22 21 21 21 20 20 18 18 17
25 24 24 24 24 24 24 25 27 28 29 30 30 28 28 30 30 30 29 29 29 28 25 23 22 23 22 22 22 22 23 23 23 23 22 22 21 20 19 19 18 17 15
24 24 23 23 23 22 23 22 21 23 26 27 28 28 28 28 29 28 28 27 27 25 21 21 21 21 21 21 21 21 21 22 23 23 22 21 21 19 18 17 16 14 12
24 23 21 22 21 21 21 21 21 19 18 18 22 25 26 26 26 27 26 24 20 21 20 19 19 19 20 19 20 19 19 20 19 18 18 17 17 16 15 14 14 12 11
23 22 21 20 20 20 20 19 19 18 17 16 17 19 20 23 23 23 22 19 18 17 18 17 18 18 17 16 16 16 15 14 15 14 14 14 14 13 12 13 13 12 12
21 21 20 20 19 18 18 17 16 15 14 13 12 13 16 15 14 14 14 16 15 15 16 15 16 16 16 16 15 15 14 14 12 11 9 9 10 11 10 11 11 11 11
20 21 19 19 19 18 17 16 16 14 13 12 11 12 12 11 10 10 10 10 11 12 12 12 11 12 13 12 12 11 10 11 11 10 10 9 9 9 10 10 9 9 9
19 19 19 18 18 16 16 14 13 12 12 11 11 10 10 9 9 8 7 7 8 9 9 8 6 6 6 7 8 8 7 6 8 8 8 9 9 8 8 7 6 5 6
18 16 16 16 16 14 13 12 11 9 8 8 8 7 7 6 6 5 5 4 5 4 5 5 4 3 2 2 2 3 3 2 3 5 6 6 6 4 3 3 2 1 -1
17 15 15 14 12 12 10 9 9 8 7 5 5 5 4 3 2 2 2 2 1 1 0 -0 -0 -0 -0 -2 -2 0 0 -1 0 0 2 4 3 3 1 -1 -2 -9 -9
15 14 12 10 9 8 7 7 6 5 4 3 3 2 3 2 1 -1 -1 -0 -1 -2 -3 -3 -3 -4 -6 -6 -6 -6 -6 -7 -6 -5 -2 -1 -3 -4 -5 -5 -10 -7 -10
13 13 12 11 9 7 5 5 3 4 3 1 -0 -0 0 1 -1 -2 -1 -1 -2 -4 -5 -5 -5 -6 -6 -5 -5 -8 -10 -10 -10 -13 -10 -4 -6 -7 -7 -9 -10 -10 -9

GFSGL_sfc_dewp_126.txt.gz
Dewpoint
35 36 37 38 39 39 40 41 43 45 47 50 52 58 60 60 61 60 59 59 59 58 58 58 57 57 57 57 57 57 56 56 53 53 55 56 57 57 56 55 53 52 50
34 34 35 37 37 38 39 40 41 43 45 47 52 54 57 59 60 59 58 58 58 58 57 57 57 57 56 56 56 56 55 55 55 52 54 54 55 56 53 51 50 49 48
33 33 34 35 35 35 37 38 39 41 43 47 50 55 56 58 60 59 58 58 58 58 57 57 56 56 55 56 56 55 55 55 55 53 52 53 51 49 45 45 44 43 44
32 32 33 33 34 34 35 37 38 40 42 45 49 57 57 58 59 59 58 58 58 58 57 57 56 56 56 56 56 55 55 55 54 53 52 53 51 49 47 43 41 41 39
31 31 32 32 32 33 34 35 37 39 41 44 48 56 58 59 59 59 58 58 57 57 56 56 56 54 51 53 55 55 54 54 53 53 52 51 50 47 46 45 41 37 37
30 30 30 31 31 32 33 34 35 38 40 43 47 56 59 59 49 48 54 57 57 56 55 55 55 50 49 45 47 47 52 53 52 52 52 51 50 48 47 45 38 37 36
29 28 28 29 29 31 31 33 34 36 39 41 45 55 58 58 46 46 46 57 56 55 55 55 54 54 50 52 44 43 43 44 44 53 51 51 51 50 48 43 42 40 38
28 27 27 27 28 29 31 32 33 35 37 39 43 52 57 57 44 44 44 56 55 55 55 54 54 53 53 50 44 39 37 37 40 44 50 48 49 51 49 47 44 33 33
26 26 26 27 28 29 30 31 33 34 36 39 44 52 56 55 43 43 45 55 53 53 53 53 54 52 43 43 42 36 33 32 36 37 36 36 36 40 44 42 38 38 32
28 26 26 26 27 26 29 30 32 33 35 37 38 39 48 53 41 42 48 52 47 42 40 40 42 48 38 39 40 37 35 32 32 33 33 32 33 34 33 38 42 41 32
26 25 26 26 27 26 28 29 31 31 32 34 33 33 34 35 43 41 44 49 44 39 37 35 34 37 37 38 39 39 36 33 31 31 30 29 29 29 30 32 33 39 34
24 23 24 25 27 25 27 27 28 30 30 31 31 31 32 32 35 39 42 41 39 37 34 33 34 36 35 34 33 33 32 31 31 30 28 26 25 25 26 28 29 30 31
23 22 22 25 25 26 25 25 26 27 28 28 29 28 29 30 31 33 35 34 34 33 33 33 33 33 32 31 31 31 31 31 29 26 23 22 23 25 27 27 27 27 26
24 23 23 23 23 25 24 24 24 24 25 26 26 26 28 29 30 29 30 30 30 28 27 27 27 27 27 27 27 27 28 28 26 23 22 23 24 24 24 25 24 24 23
24 23 22 22 21 22 23 24 23 24 26 25 25 26 26 26 29 30 30 29 28 28 28 27 26 26 25 25 25 25 25 25 24 23 23 22 22 22 22 23 23 23 21
23 22 21 21 21 21 21 21 24 25 25 26 28 27 27 29 29 30 30 30 29 28 25 23 23 23 22 22 22 22 23 23 23 23 23 22 21 21 21 22 22 21 19
22 21 20 20 20 20 19 19 17 20 24 24 24 26 27 27 28 28 27 26 27 25 21 21 20 21 21 21 21 21 21 22 23 22 22 21 21 21 20 19 19 18 16
21 20 18 18 18 18 18 18 17 16 15 15 19 21 24 24 25 25 25 23 19 19 19 18 18 18 19 19 20 20 20 20 20 20 20 21 21 19 18 16 16 16 14
21 20 20 18 18 18 17 17 16 14 13 13 14 15 17 21 21 21 21 17 16 16 17 16 17 17 17 17 17 17 17 17 17 17 17 17 18 16 14 14 14 14 13
20 21 20 19 18 17 16 15 14 13 12 11 10 11 14 13 12 12 12 13 14 14 14 14 15 15 15 15 16 16 15 15 14 13 14 14 15 15 14 14 14 13 13
18 19 18 17 16 15 14 13 12 12 11 10 10 10 10 10 9 8 8 8 9 9 10 10 10 11 13 13 14 14 13 13 13 13 12 12 13 12 12 12 12 12 11
17 17 17 16 14 13 12 11 10 9 9 8 8 8 8 8 7 6 5 5 6 7 8 7 6 6 6 7 10 10 10 10 11 11 11 11 11 11 10 9 9 9 8
15 13 13 12 12 9 9 9 8 7 6 5 6 5 5 4 4 3 3 3 3 3 4 4 4 3 3 3 4 5 5 5 7 10 10 10 9 8 8 7 6 6 5
13 11 11 10 8 7 5 4 5 4 4 3 3 3 3 1 1 1 0 0 -0 -0 -0 -1 -2 -2 -0 0 1 2 2 3 5 6 8 7 7 7 6 5 4 1 1
11 10 9 7 4 -1 -0 1 -1 -1 -0 -1 -0 0 1 1 0 -1 -1 -1 -2 -3 -3 -3 -3 -4 -5 -5 -4 -4 -4 -4 -1 2 5 5 3 2 2 2 1 1 -1
8 8 7 7 5 3 1 0 -1 -3 -4 -4 -4 -5 -4 -1 -1 -1 -1 -2 -3 -4 -4 -5 -6 -6 -6 -6 -3 -5 -8 -7 -6 -5 0 2 1 -0 -0 -1 -2 -1 -2